FW2600 Weather Reports


Display with metric or nautical units.
time (UTC)temp
F
wind
direction
speed
MPH
gust
MPH
rain 1hr
in
rain 24hr
in
rain mn
in
humidity
%
barometer
mb
20260503034259 49 0.0 0.0 0.00 0.00 0.00 14 1014.6
20260503033223 49 0.0 0.0 0.00 0.00 0.00 14 1014.7
20260503032306 49 0.0 0.0 0.00 0.00 0.00 14 1014.6
20260503031249 49 0.0 0.0 0.00 0.00 0.00 14 1014.6
20260503030353 49 0.0 0.0 0.00 0.00 0.00 14 1014.5
20260503025316 49 0.0 0.0 0.00 0.00 0.00 14 1014.5
20260503024252 49 0.0 0.0 0.00 0.00 0.00 14 1014.5
20260503023328 50 0.0 0.0 0.00 0.00 0.00 14 1014.5
20260503022329 50 0.0 0.0 0.00 0.00 0.00 14 1014.5
20260503021230 50 0.0 0.0 0.00 0.00 0.00 14 1014.5
20260503020259 50 0.0 0.0 0.00 0.00 0.00 14 1014.2
20260503015300 51 0.0 0.0 0.00 0.00 0.00 14 1014.2
20260503014323 51 0.0 0.0 0.00 0.00 0.00 14 1014.2
20260503013247 51 0.0 0.0 0.00 0.00 0.00 14 1014.4
20260503012310 51 0.0 0.0 0.00 0.00 0.00 14 1014.4
20260503011315 52 0.0 0.0 0.00 0.00 0.00 14 1014.4
20260503005238 52 0.0 0.0 0.00 0.00 0.00 14 1014.2
20260503004259 53 0.0 0.0 0.00 0.00 0.00 14 1014.2
20260503003239 53 0.0 0.0 0.00 0.00 0.00 14 1014.7
20260503002219 53 0.0 0.0 0.00 0.00 0.00 14 1014.7
20260503001318 53 0.0 0.0 0.00 0.00 0.00 14 1014.8
20260503000339 54 0.0 0.0 0.00 0.00 0.00 14 1014.8
20260502235222 54 0.0 0.0 0.00 0.00 0.00 14 1014.8
20260502234325 55 0.0 0.0 0.00 0.00 0.00 14 1014.8
20260502233249 56 0.0 0.0 0.00 0.00 0.00 14 1014.9
20260502232333 56 0.0 0.0 0.00 0.00 0.00 14 1014.9
20260502231356 56 0.0 0.0 0.00 0.00 0.00 14 1014.8
20260502230259 57 0.0 0.0 0.00 0.00 0.00 14 1015.0
20260502225242 57 0.0 0.0 0.00 0.00 0.00 14 1015.0
20260502224226 57 0.0 0.0 0.00 0.00 0.00 14 1014.9
20260502223309 57 0.0 0.0 0.00 0.00 0.00 14 1015.1
20260502222313 58 0.0 0.0 0.00 0.00 0.00 14 1015.1
20260502221236 58 0.0 0.0 0.00 0.00 0.00 14 1015.0
20260502220239 58 0.0 0.0 0.00 0.00 0.00 14 1015.0
20260502215305 58 0.0 0.0 0.00 0.00 0.00 14 1015.0
20260502214309 59 0.0 0.0 0.00 0.00 0.00 14 1015.0
20260502213232 59 0.0 0.0 0.00 0.00 0.00 14 1015.0
20260502212316 59 0.0 0.0 0.00 0.00 0.00 14 1015.0
20260502211340 60 0.0 0.0 0.00 0.00 0.00 14 1014.9
20260502210244 60 0.0 0.0 0.00 0.00 0.00 14 1015.1
20260502205229 61 0.0 0.0 0.00 0.00 0.00 14 1015.1
20260502204313 62 0.0 0.0 0.00 0.00 0.00 14 1015.0
20260502203257 62 0.0 0.0 0.00 0.00 0.00 14 1015.0
20260502202240 63 0.0 0.0 0.00 0.00 0.00 14 1015.0
20260502201224 63 0.0 0.0 0.00 0.00 0.00 14 1014.9
20260502200307 64 0.0 0.0 0.00 0.00 0.00 14 1014.9
20260502195250 64 0.0 0.0 0.00 0.00 0.00 14 1014.9
20260502194234 65 0.0 0.0 0.00 0.00 0.00 14 1014.8
20260502193317 66 0.0 0.0 0.00 0.00 0.00 14 1014.6
20260502192301 67 0.0 0.0 0.00 0.00 0.00 14 1014.6
20260502191305 68 0.0 0.0 0.00 0.00 0.00 14 1014.5
20260502190228 69 0.0 0.0 0.00 0.00 0.00 14 1014.3
20260502184257 71 0.0 0.0 0.00 0.00 0.00 14 1014.4
20260502183301 72 0.0 0.0 0.00 0.00 0.00 14 1014.4
20260502182224 73 0.0 0.0 0.00 0.00 0.00 14 1014.4
20260502181308 75 0.0 0.0 0.00 0.00 0.00 14 1014.5
20260502180312 76 0.0 0.0 0.00 0.00 0.00 14 1014.2
20260502170216 82 0.0 0.0 0.00 0.00 0.00 14 1015.1
20260502164143 83 0.0 0.0 0.00 0.00 0.00 14 1015.2
20260502163147 85 0.0 0.0 0.00 0.00 0.00 14 1015.3
20260502162230 85 0.0 0.0 0.00 0.00 0.00 14 1015.3
20260502161154 86 0.0 0.0 0.00 0.00 0.00 14 1015.4
20260502160138 87 0.0 0.0 0.00 0.00 0.00 14 1015.7
20260502152153 89 0.0 0.0 0.00 0.00 0.00 14 1015.9
20260502151237 89 0.0 0.0 0.00 0.00 0.00 14 1015.9
20260502150201 88 0.0 0.0 0.00 0.00 0.00 14 1016.7
20260502130146 86 0.0 0.0 0.00 0.00 0.00 14 1017.8
20260502123218 85 0.0 0.0 0.00 0.00 0.00 14 1018.2
20260502122142 84 0.0 0.0 0.00 0.00 0.00 14 1018.2
20260502121145 85 0.0 0.0 0.00 0.00 0.00 14 1018.2
20260502120209 86 0.0 0.0 0.00 0.00 0.00 14 1018.8
20260502115153 85 0.0 0.0 0.00 0.00 0.00 14 1018.7
20260502114156 85 0.0 0.0 0.00 0.00 0.00 14 1018.7
20260502113140 84 0.0 0.0 0.00 0.00 0.00 14 1018.9
20260502112203 83 0.0 0.0 0.00 0.00 0.00 14 1018.9
20260502111307 82 0.0 0.0 0.00 0.00 0.00 14 1018.8
20260502110130 82 0.0 0.0 0.00 0.00 0.00 14 1019.2
20260502105215 81 0.0 0.0 0.00 0.00 0.00 14 1019.2
20260502104255 79 0.0 0.0 0.00 0.00 0.00 14 1019.2
20260502103222 79 0.0 0.0 0.00 0.00 0.00 14 1019.5
20260502102238 78 0.0 0.0 0.00 0.00 0.00 14 1019.5
20260502101126 77 0.0 0.0 0.00 0.00 0.00 14 1019.5
20260502100140 75 0.0 0.0 0.00 0.00 0.00 14 1019.9
20260502091157 72 0.0 0.0 0.00 0.00 0.00 14 1020.2
20260502090237 72 0.0 0.0 0.00 0.00 0.00 14 1020.4
20260502071259 56 0.0 0.0 0.00 0.00 0.00 14 1020.4
20260502070143 55 0.0 0.0 0.00 0.00 0.00 14 1020.5
20260502065209 54 0.0 0.0 0.00 0.00 0.00 14 1020.5
20260502064153 52 0.0 0.0 0.00 0.00 0.00 14 1020.5
20260502063158 52 0.0 0.0 0.00 0.00 0.00 14 1020.7
20260502062202 51 0.0 0.0 0.00 0.00 0.00 14 1020.7
20260502061248 50 0.0 0.0 0.00 0.00 0.00 14 1020.8
20260502060151 49 0.0 0.0 0.00 0.00 0.00 14 1020.5
20260502055054 49 0.0 0.0 0.00 0.00 0.00 14 1020.5
20260502054159 48 0.0 0.0 0.00 0.00 0.00 14 1020.5
20260502053122 48 0.0 0.0 0.00 0.00 0.00 14 1020.2
20260502052047 47 0.0 0.0 0.00 0.00 0.00 14 1020.1
20260502051131 47 0.0 0.0 0.00 0.00 0.00 14 1020.3
20260502050116 47 0.0 0.0 0.00 0.00 0.00 14 1019.7
20260502045120 47 0.0 0.0 0.00 0.00 0.00 14 1019.7
20260502044044 47 0.0 0.0 0.00 0.00 0.00 14 1019.8
20260502043050 47 0.0 0.0 0.00 0.00 0.00 14 1020.1
20260502042133 46 0.0 0.0 0.00 0.00 0.00 14 1020.1
20260502041057 46 0.0 0.0 0.00 0.00 0.00 14 1020.2
20260502040122 46 0.0 0.0 0.00 0.00 0.00 14 1020.2
20260502035045 46 0.0 0.0 0.00 0.00 0.00 14 1020.2